Wind_Speed
12 12 13 13 12 12 11 10 9 9 10 10 9 9 8 7 8 8 8 8 9 9 9 10 10 11 12 13 14 15 16 17 17 17 18 19 20 20 21 21 21 21
13 13 14 13 12 11 10 10 10 10 11 11 10 9 8 7 8 8 8 9 10 10 10 11 11 12 13 13 14 15 16 17 17 18 18 19 19 20 21 21 22 22
13 13 12 11 10 10 10 10 10 11 12 11 10 9 8 8 9 10 10 10 11 12 12 12 12 13 14 14 15 16 17 17 17 18 18 19 19 20 21 21 22 22
12 12 11 10 10 10 10 10 11 12 12 11 10 9 8 9 10 11 11 12 13 14 14 14 14 15 15 16 17 18 19 18 18 19 19 19 20 21 22 22 22 22
12 12 11 11 11 11 11 11 11 12 12 11 10 9 10 12 12 12 12 13 14 14 15 16 17 17 17 17 18 20 21 21 20 20 20 20 20 22 23 23 23 23
13 12 11 11 11 11 11 11 12 12 12 11 11 11 12 13 14 13 13 14 15 16 17 18 18 18 19 19 20 21 22 22 21 21 22 22 22 23 24 24 24 25
14 13 12 12 12 12 12 12 12 12 11 11 11 13 14 14 14 14 14 15 17 18 19 20 20 20 20 21 21 22 23 23 24 25 25 25 24 25 25 26 26 26
14 14 14 14 14 14 14 14 13 12 10 10 10 13 14 15 14 14 14 15 17 19 20 21 22 22 22 22 23 24 25 25 26 27 27 27 27 27 27 28 28 28
14 15 16 16 17 16 15 14 14 12 11 11 12 14 15 15 15 15 15 16 17 18 20 21 22 23 23 23 23 24 25 25 25 25 25 26 27 28 29 30 30 30
15 15 16 17 17 17 16 15 14 12 12 13 15 16 16 16 17 17 17 17 18 19 20 21 22 22 22 22 22 23 23 23 23 24 24 25 26 28 29 30 31 31
16 16 17 18 18 18 17 16 14 13 13 14 16 17 17 18 19 19 19 19 19 19 19 19 19 20 21 22 22 23 23 23 23 23 24 25 26 28 29 30 31 31
15 15 16 18 18 18 17 16 15 15 15 16 16 17 17 17 17 17 18 18 19 18 18 18 18 19 20 21 21 22 24 24 24 24 24 25 26 27 28 29 29 29
14 15 16 17 17 17 17 16 16 16 17 17 18 18 17 15 15 15 16 17 17 17 18 18 19 19 19 20 21 21 22 23 24 24 24 24 24 23 23 23 24 25
16 17 17 17 17 17 17 16 17 17 18 19 19 18 17 15 15 15 15 15 15 16 17 18 18 18 18 18 19 19 19 20 20 20 20 20 20 19 18 19 20 21
16 17 18 18 18 18 17 17 17 17 17 18 19 18 16 15 14 14 13 13 14 15 16 17 18 18 18 17 18 18 18 18 19 18 18 18 18 17 17 18 19 20
16 18 19 19 18 18 18 17 17 17 17 17 16 15 13 12 12 12 13 13 14 15 16 16 17 18 17 17 18 19 19 19 18 18 18 18 17 17 17 18 18 18
16 17 18 19 18 18 17 16 16 16 15 15 13 12 11 11 12 13 14 15 15 15 15 15 16 17 17 17 18 18 19 19 18 17 16 16 16 16 16 16 17 17
18 17 17 18 18 18 17 16 15 14 14 14 13 12 12 12 13 14 14 15 15 15 14 14 15 16 17 18 18 18 18 18 17 16 15 15 15 15 15 16 16 16
19 18 17 17 17 17 16 15 13 13 14 14 14 13 13 14 15 15 15 15 14 14 14 14 15 16 17 18 18 18 18 18 17 16 15 15 15 15 15 16 16 16
18 18 17 17 16 16 15 13 11 11 13 14 14 15 15 16 16 15 14 13 13 14 15 15 16 16 17 18 18 17 17 17 17 16 15 15 15 16 16 16 17 17
18 18 17 16 15 15 15 13 12 12 13 14 15 15 15 16 15 14 12 12 13 14 15 16 16 16 16 15 15 15 15 16 16 16 16 16 16 17 17 17 17 18
18 16 15 14 14 13 12 11 12 13 13 14 14 14 14 14 13 12 12 12 13 14 15 15 15 15 14 13 14 14 15 15 16 16 17 17 17 17 17 17 18 18
16 14 13 13 12 11 10 10 12 12 13 13 13 12 12 12 12 12 13 13 13 13 13 14 14 14 13 13 13 14 14 15 15 16 16 17 17 17 18 19 19 20
13 12 12 11 11 10 10 10 11 11 12 12 12 12 11 11 12 13 12 12 12 12 13 13 13 13 13 13 13 14 14 15 16 16 17 18 19 20 21 21 22 23
13 12 11 11 11 11 10 10 11 11 11 12 12 12 11 12 12 12 11 11 12 12 12 13 13 13 13 13 14 14 15 16 17 18 19 20 21 22 24 24 25 26
14 13 12 12 12 11 10 10 11 11 12 12 12 11 11 11 11 10 10 11 11 12 12 13 13 14 14 14 15 15 16 17 18 19 21 22 23 24 26 27 28 29
Wind_Direction
234 235 237 238 237 237 238 237 238 241 245 249 253 257 262 269 272 274 274 273 273 275 276 277 278 279 280 279 278 277 276 274 272 272 271 269 269 270 272 273 273 273
234 235 235 235 233 233 235 237 241 246 250 255 261 268 275 278 276 272 269 269 274 278 281 282 285 289 291 289 287 285 283 282 281 278 276 275 274 275 275 275 275 275
230 230 231 231 232 234 238 242 249 255 261 266 273 280 282 279 273 269 268 270 276 281 284 286 286 285 283 281 278 274 272 274 276 275 274 274 273 272 271 270 272 272
223 223 223 225 229 233 240 246 254 261 267 273 277 280 278 273 268 269 273 277 282 284 285 283 279 279 280 281 283 281 280 280 279 277 275 273 272 272 271 271 271 269
222 222 223 228 232 237 242 248 256 262 268 273 275 274 273 273 273 276 281 284 284 283 280 277 279 283 286 286 286 285 284 283 279 277 275 273 271 272 275 275 275 273
226 226 229 233 237 242 246 251 256 261 266 270 272 272 273 276 279 283 284 283 281 280 279 281 283 285 284 283 282 281 280 279 278 279 279 277 275 275 277 279 279 280
232 232 235 240 243 246 249 252 255 261 269 273 270 268 268 269 273 276 278 279 281 283 285 286 286 286 286 286 286 285 283 281 280 280 279 278 277 276 276 276 278 279
236 237 240 243 246 250 253 256 259 264 273 278 270 260 258 261 267 272 275 278 282 286 288 289 290 291 292 291 291 291 289 285 282 281 279 277 276 276 275 275 275 276
234 237 239 243 246 252 255 257 260 264 271 273 268 262 263 269 275 277 277 280 284 288 290 291 292 293 293 291 291 291 290 287 285 282 280 277 275 275 274 274 275 276
232 233 237 242 245 250 252 255 260 265 270 270 269 270 274 278 279 278 278 282 287 290 291 291 291 292 293 292 291 290 290 288 286 284 282 279 276 275 274 274 276 278
230 232 234 238 242 245 248 253 258 263 266 268 271 274 276 276 276 277 280 285 289 292 293 292 293 294 294 294 292 291 290 288 287 285 282 279 277 276 276 277 279 280
229 231 233 239 244 248 251 254 258 262 265 269 272 274 275 275 275 277 280 284 287 290 292 293 296 297 297 296 294 292 290 290 289 287 283 281 281 282 283 284 284 284
226 227 230 238 245 251 256 259 262 265 267 269 271 273 276 278 280 280 280 281 284 288 293 296 298 298 298 296 293 292 292 293 293 292 290 288 288 289 289 289 289 289
227 228 231 236 244 252 259 263 266 267 267 269 270 273 277 280 280 279 279 283 287 290 292 294 296 297 297 296 296 298 299 299 298 298 296 294 294 293 292 291 292 294
233 232 234 239 245 253 259 263 265 267 269 270 270 272 275 276 277 280 286 291 292 290 291 292 295 296 297 299 301 302 302 301 300 298 296 295 295 296 295 294 295 296
238 234 236 242 247 253 260 263 266 269 270 270 270 270 272 275 280 286 291 293 291 289 290 291 293 296 299 302 303 302 302 302 301 299 298 297 297 297 297 297 297 298
245 241 241 246 253 258 263 267 270 273 273 270 269 270 274 280 283 286 289 291 291 290 290 291 293 297 300 302 302 302 303 304 303 302 302 302 303 303 302 301 301 300
251 252 251 252 257 261 264 267 269 272 273 272 273 276 280 282 283 285 288 290 289 289 291 293 295 298 300 301 301 302 303 304 305 305 305 305 306 306 306 305 305 305
252 255 254 253 256 257 259 261 265 269 271 272 275 277 278 281 282 284 285 285 286 289 293 295 297 298 300 301 302 304 305 306 307 308 308 306 306 307 308 309 311 312
252 253 250 249 251 253 254 258 265 272 272 269 269 271 274 279 281 281 281 282 285 289 293 296 297 297 298 300 303 306 307 309 310 308 307 307 308 310 310 311 313 314
248 249 250 249 250 252 255 258 262 269 268 264 264 269 273 276 276 277 281 283 285 288 290 293 294 294 296 300 304 308 310 311 309 307 308 311 311 310 310 312 314 316
245 248 251 250 248 250 253 255 258 263 266 267 269 271 271 271 271 273 277 279 280 284 287 290 293 297 303 307 309 311 311 309 310 311 312 310 308 308 311 314 316 316
244 246 248 246 244 244 246 252 260 268 272 272 270 267 264 264 266 269 273 277 282 289 293 296 300 304 309 311 310 309 308 307 308 308 306 305 307 311 314 314 314 313
236 237 237 237 239 244 251 261 269 271 269 264 260 258 258 260 264 268 276 285 293 299 301 301 303 305 306 306 305 305 304 304 303 303 304 307 309 311 310 309 308 306
226 226 230 236 242 249 258 268 270 264 257 252 252 254 257 261 266 274 283 292 297 300 300 300 300 301 301 301 301 301 300 300 301 302 304 305 305 304 303 302 300 299
223 230 241 246 248 254 262 266 263 255 251 250 253 257 261 265 272 278 283 288 291 292 293 294 294 294 294 294 294 294 295 297 299 300 301 302 301 301 299 297 295 294
Height
5930 5930 5931 5930 5931 5931 5931 5932 5932 5933 5933 5933 5934 5935 5936 5937 5937 5937 5937 5938 5938 5937 5937 5937 5937 5937 5937 5937 5937 5937 5937 5938 5938 5938 5938 5937 5937 5936 5937 5936 5936 5936
5928 5929 5929 5929 5929 5929 5930 5930 5931 5931 5931 5932 5933 5935 5936 5936 5936 5936 5936 5936 5936 5936 5936 5935 5935 5936 5936 5936 5936 5935 5936 5936 5936 5937 5936 5936 5935 5935 5935 5935 5934 5934
5926 5927 5928 5928 5928 5928 5929 5929 5929 5929 5930 5931 5933 5934 5935 5935 5935 5935 5935 5935 5935 5935 5935 5935 5934 5934 5934 5933 5933 5932 5932 5933 5933 5933 5934 5933 5933 5932 5932 5931 5931 5931
5925 5925 5926 5926 5926 5927 5927 5927 5928 5928 5929 5931 5932 5933 5934 5933 5933 5932 5933 5933 5934 5934 5933 5933 5932 5932 5932 5932 5931 5931 5931 5932 5931 5931 5931 5931 5930 5930 5929 5928 5928 5928
5923 5924 5924 5924 5925 5925 5925 5926 5926 5927 5928 5930 5931 5932 5932 5931 5930 5931 5932 5932 5932 5932 5931 5930 5930 5930 5930 5930 5930 5929 5929 5929 5929 5928 5928 5928 5928 5927 5926 5926 5926 5925
5921 5922 5922 5923 5923 5924 5924 5925 5925 5926 5928 5929 5930 5930 5929 5928 5929 5930 5930 5930 5929 5929 5928 5928 5928 5928 5928 5927 5927 5927 5927 5926 5926 5926 5925 5925 5925 5925 5924 5923 5923 5922
5919 5920 5920 5921 5921 5922 5923 5923 5924 5925 5927 5928 5929 5928 5927 5926 5927 5928 5928 5927 5927 5926 5926 5926 5925 5925 5925 5925 5924 5924 5924 5923 5923 5923 5922 5922 5921 5921 5920 5920 5919 5918
5917 5918 5918 5919 5919 5920 5921 5922 5922 5924 5926 5927 5927 5925 5924 5925 5926 5926 5926 5925 5925 5924 5924 5923 5923 5922 5922 5922 5921 5921 5920 5920 5919 5919 5918 5917 5917 5916 5916 5916 5916 5915
5915 5916 5916 5916 5917 5917 5918 5919 5920 5922 5924 5924 5923 5922 5922 5924 5924 5924 5924 5923 5923 5923 5922 5921 5920 5920 5919 5919 5918 5917 5916 5916 5915 5915 5914 5913 5912 5912 5912 5911 5911 5911
5913 5913 5914 5914 5914 5914 5915 5916 5918 5920 5921 5921 5920 5920 5921 5921 5921 5921 5921 5921 5921 5920 5920 5919 5918 5917 5916 5915 5915 5914 5913 5912 5911 5910 5910 5909 5908 5907 5907 5907 5907 5907
5910 5911 5911 5911 5911 5912 5913 5915 5916 5918 5918 5918 5917 5918 5919 5919 5918 5918 5918 5918 5917 5917 5917 5916 5915 5914 5913 5912 5911 5910 5909 5908 5908 5907 5906 5905 5904 5903 5903 5902 5902 5903
5908 5909 5909 5909 5909 5911 5912 5914 5915 5916 5916 5915 5915 5916 5916 5916 5916 5916 5916 5915 5914 5914 5914 5913 5912 5911 5910 5909 5908 5907 5906 5904 5904 5903 5902 5901 5901 5900 5900 5899 5899 5898
5906 5906 5907 5907 5908 5909 5911 5912 5913 5914 5913 5913 5914 5913 5914 5914 5913 5913 5913 5912 5912 5911 5911 5910 5910 5909 5908 5907 5906 5904 5903 5902 5901 5900 5899 5898 5898 5897 5896 5896 5895 5894
5904 5904 5905 5905 5906 5907 5909 5910 5911 5911 5911 5911 5911 5911 5911 5911 5911 5910 5910 5910 5910 5909 5908 5908 5907 5907 5906 5905 5904 5903 5902 5900 5899 5898 5897 5896 5895 5894 5894 5893 5892 5891
5903 5904 5904 5904 5904 5905 5906 5907 5907 5908 5908 5908 5908 5908 5909 5908 5908 5908 5908 5908 5907 5907 5906 5906 5905 5905 5904 5903 5902 5901 5900 5899 5897 5896 5895 5894 5893 5892 5891 5890 5890 5889
5903 5903 5903 5902 5903 5903 5904 5904 5905 5905 5905 5905 5905 5906 5906 5906 5906 5906 5906 5906 5905 5905 5905 5904 5904 5903 5902 5902 5901 5899 5898 5897 5895 5894 5893 5892 5891 5890 5889 5888 5887 5887
5900 5900 5901 5901 5901 5902 5902 5902 5903 5903 5903 5903 5903 5903 5904 5904 5904 5904 5904 5904 5903 5903 5903 5902 5901 5901 5900 5900 5898 5897 5896 5895 5894 5892 5891 5890 5889 5888 5887 5887 5886 5885
5897 5898 5899 5899 5900 5901 5901 5901 5901 5901 5902 5901 5901 5901 5902 5902 5902 5903 5902 5901 5901 5900 5900 5899 5899 5898 5898 5897 5896 5895 5894 5893 5892 5891 5890 5889 5888 5887 5887 5886 5885 5884
5896 5897 5897 5897 5898 5899 5899 5900 5900 5900 5900 5900 5900 5900 5900 5900 5900 5901 5900 5899 5898 5898 5897 5897 5896 5895 5895 5894 5893 5893 5892 5892 5891 5890 5889 5888 5887 5886 5886 5885 5884 5883
5895 5895 5895 5896 5897 5898 5898 5899 5899 5899 5899 5899 5898 5898 5898 5898 5898 5898 5898 5897 5896 5896 5895 5894 5894 5893 5893 5892 5891 5891 5890 5889 5889 5888 5887 5886 5885 5884 5884 5883 5882 5881
5892 5893 5893 5895 5896 5896 5897 5897 5898 5897 5897 5897 5896 5896 5896 5896 5896 5896 5896 5895 5895 5894 5893 5892 5892 5892 5891 5891 5890 5889 5888 5887 5887 5886 5885 5884 5883 5882 5881 5880 5879 5878
5890 5891 5892 5893 5894 5895 5895 5896 5896 5895 5895 5895 5894 5894 5894 5894 5894 5893 5893 5893 5893 5892 5892 5891 5891 5890 5890 5889 5888 5887 5886 5886 5885 5884 5883 5882 5882 5880 5879 5878 5877 5876
5889 5890 5890 5891 5892 5893 5893 5893 5893 5893 5892 5892 5892 5892 5892 5892 5892 5891 5891 5891 5891 5891 5890 5890 5890 5889 5888 5887 5886 5885 5885 5884 5884 5883 5882 5881 5880 5879 5877 5876 5875 5874
5887 5888 5888 5889 5889 5890 5890 5890 5890 5890 5890 5890 5890 5890 5891 5890 5890 5890 5889 5889 5889 5889 5889 5889 5888 5887 5886 5885 5884 5884 5883 5883 5882 5882 5881 5879 5878 5877 5875 5874 5873 5872
5885 5885 5886 5886 5886 5887 5887 5887 5888 5889 5889 5889 5889 5889 5889 5889 5889 5888 5888 5887 5887 5887 5887 5887 5886 5885 5884 5883 5883 5882 5882 5881 5881 5880 5879 5878 5877 5875 5874 5873 5872 5871
5883 5883 5883 5884 5884 5884 5885 5885 5886 5887 5887 5888 5888 5888 5888 5888 5887 5887 5886 5886 5886 5886 5886 5885 5884 5884 5883 5882 5881 5881 5880 5880 5879 5878 5877 5876 5875 5874 5873 5871 5870 5869